Theta_e
320 317 316 316 316 315 315 320 318 314 313 312 312 312 313 314 315 316 321 324 326 327 326 329 331 334 334 340 345 347 354 352 350 348 350 348 348 349 349 351 352 351 352 355 353
319 320 316 317 317 316 315 316 320 318 314 313 312 312 313 313 314 319 322 322 323 326 326 331 335 336 337 342 344 348 349 347 345 346 345 347 349 348 350 352 352 354 356 355 354
320 319 320 316 317 316 316 315 316 321 317 313 313 312 313 313 321 320 321 322 324 325 328 329 333 335 339 340 342 344 347 344 343 343 344 345 347 347 347 353 353 356 357 356 355
321 320 319 320 316 318 316 316 315 318 321 314 313 312 313 314 325 323 320 322 324 325 326 330 335 337 339 341 340 343 340 341 342 341 342 345 345 347 347 353 351 357 358 357 356
321 320 320 320 318 317 318 316 315 317 321 316 313 312 313 321 322 322 318 323 324 324 327 332 335 337 339 338 338 340 339 338 338 339 340 340 346 349 351 351 351 354 357 357 356
320 321 320 319 320 317 318 317 315 316 321 317 313 313 315 323 320 322 329 323 326 325 329 332 335 335 336 337 339 338 337 337 338 340 342 343 347 347 353 354 352 355 357 356 355
320 320 321 320 320 317 319 318 315 316 321 317 314 313 323 322 318 323 325 327 329 328 332 334 333 334 336 339 338 337 336 338 340 341 343 345 353 354 355 356 356 355 357 355 355
320 320 321 320 319 318 318 316 315 317 321 317 314 315 324 319 319 323 325 327 329 329 332 334 332 334 336 337 337 337 338 341 341 341 344 344 356 354 355 355 355 356 355 355 354
320 320 321 320 319 318 317 315 315 319 321 315 316 321 323 318 318 322 324 326 329 330 331 332 332 335 337 338 339 338 340 344 342 343 344 345 357 353 353 353 354 355 353 352 354
320 320 321 320 319 318 315 315 318 321 319 315 322 324 321 319 321 323 324 326 330 331 333 334 334 336 337 339 340 339 340 338 340 343 345 346 351 352 352 353 353 352 350 353 353
319 320 320 320 318 317 315 319 323 325 323 326 323 323 320 321 322 324 324 327 330 332 337 336 337 336 338 338 339 338 337 338 341 342 343 344 347 348 351 350 350 349 350 353 351
319 320 320 319 318 317 316 325 325 325 329 326 322 321 322 322 324 324 325 325 330 334 335 337 337 336 337 335 336 337 337 338 340 341 342 346 350 349 350 348 347 348 350 350 347
318 319 319 318 318 317 316 324 324 325 330 329 325 320 321 321 325 326 326 325 329 333 335 339 334 335 336 336 335 337 338 338 339 341 340 345 354 352 350 348 347 348 349 346 346
317 318 318 318 318 321 320 321 323 325 332 332 328 323 321 321 326 326 327 326 329 332 334 336 335 334 335 336 336 337 337 336 337 339 345 344 351 345 350 350 348 348 348 347 347
317 318 318 318 323 321 322 323 324 325 335 332 328 324 322 323 325 327 327 327 329 330 333 334 335 335 333 335 335 336 336 337 337 339 341 343 346 354 346 349 348 347 346 346 346
319 319 318 318 318 322 321 323 324 331 332 331 330 327 325 323 326 326 327 327 327 329 332 333 332 334 333 334 335 335 335 337 339 338 340 342 345 350 347 348 347 346 345 344 343
323 322 319 320 324 321 321 325 330 333 332 331 330 328 326 324 325 327 328 327 328 328 332 332 333 332 332 334 334 335 337 341 343 341 342 343 344 348 345 345 345 345 343 343 343
324 319 318 319 322 321 324 329 333 329 332 332 329 328 325 325 326 327 328 328 328 328 331 333 331 333 331 333 336 336 337 345 348 349 349 346 346 351 345 343 342 343 342 342 343
321 321 320 319 320 323 326 332 331 331 333 331 328 327 326 326 327 326 328 328 328 328 329 331 331 332 332 334 335 337 338 338 340 341 342 348 349 347 345 344 343 342 342 343 344
325 325 324 321 319 324 330 329 331 333 334 334 327 327 327 327 327 327 327 328 329 328 329 330 330 332 332 333 335 335 336 337 339 342 344 346 347 354 348 345 345 343 342 343 344
327 328 323 322 324 326 331 331 331 331 332 334 329 328 328 328 327 328 328 328 328 328 328 330 330 334 334 334 334 335 336 337 337 338 343 350 347 342 349 345 345 343 341 342 343
329 330 323 324 328 328 329 330 328 332 331 333 334 333 331 331 328 328 329 329 327 327 327 330 331 334 334 334 334 335 336 335 336 339 346 343 348 339 345 345 343 343 342 343 345
331 326 324 325 332 331 329 330 330 332 332 333 333 334 332 330 329 329 329 329 328 327 327 329 331 334 337 333 335 334 335 336 336 336 345 344 350 341 345 346 345 345 346 347 350
331 330 325 325 329 332 330 331 331 330 331 332 336 334 332 331 329 334 330 330 328 326 327 329 331 333 335 336 335 336 335 335 335 337 341 342 344 339 345 349 349 348 350 353 355
334 334 329 329 329 331 332 332 331 333 332 333 336 337 334 337 337 337 335 333 331 328 328 329 331 332 333 335 337 338 339 338 338 336 337 341 343 342 346 351 350 352 354 355 354
332 334 329 333 332 331 327 332 333 333 337 335 337 336 336 339 341 339 338 338 337 331 330 329 332 332 333 332 336 335 337 336 337 337 338 342 343 338 333 351 353 353 355 354 351
325 329 330 332 332 333 335 334 334 335 336 336 337 339 339 339 339 338 337 337 337 334 332 332 331 333 334 334 335 336 337 338 337 336 337 343 347 344 347 348 351 353 354 353 349
Wind_Speed
12 12 9 6 7 8 10 10 10 10 10 11 11 11 12 13 13 13 13 11 12 8 4 6 8 6 6 3 3 8 5 5 16 2 9 8 5 5 2 10 4 5 6 19 21
12 12 11 7 6 6 8 10 11 10 10 10 9 9 10 11 13 18 16 18 15 9 7 7 7 7 7 4 5 10 5 8 7 9 10 9 7 10 9 13 13 10 11 19 22
12 11 11 10 7 6 7 9 11 10 10 10 8 7 7 6 9 21 19 20 15 11 8 8 9 10 7 6 5 2 8 4 5 10 10 8 5 4 5 16 7 21 17 20 21
12 11 11 10 8 7 7 8 10 11 10 9 8 7 6 7 5 5 13 19 16 12 9 9 9 12 7 6 5 6 4 3 5 3 2 3 5 4 9 13 7 20 18 19 21
11 12 11 10 10 8 7 8 10 10 10 9 8 7 5 9 14 4 13 18 16 13 11 9 9 4 7 1 4 8 3 2 1 4 5 4 3 4 7 12 6 9 17 18 19
11 11 11 11 11 9 8 8 9 10 10 9 8 7 6 14 7 3 8 15 15 15 13 10 5 5 7 2 8 2 5 6 2 3 4 2 2 5 8 6 4 10 15 16 19
11 11 11 11 11 10 7 7 9 10 10 9 8 7 10 11 7 7 9 16 16 16 14 11 6 10 2 7 3 8 10 10 3 2 3 5 5 4 3 2 6 11 12 14 17
11 11 10 11 11 10 6 6 8 9 9 8 7 5 9 10 12 11 12 15 16 14 12 8 7 10 10 3 11 12 12 7 8 5 5 11 6 4 3 6 8 10 13 11 10
12 10 10 10 10 8 4 5 8 8 8 7 3 5 12 9 14 14 16 18 16 13 11 7 9 17 10 13 13 11 7 19 14 3 1 8 7 5 3 4 6 9 11 12 10
12 10 9 9 8 4 4 7 8 7 7 6 6 8 14 13 16 17 18 18 18 15 14 13 13 14 15 16 4 6 13 8 1 7 5 3 4 5 5 4 9 12 9 11 9
12 11 9 8 7 4 11 9 4 4 14 11 8 6 7 12 15 18 20 16 20 19 17 21 14 15 20 6 7 8 3 6 8 4 5 0 3 5 7 6 4 3 3 0 11
13 11 9 8 5 9 16 8 5 4 9 24 10 15 6 11 16 20 21 22 20 18 22 13 16 19 4 0 6 8 8 9 7 5 9 5 4 5 7 3 1 8 6 12 11
14 11 8 7 6 12 16 10 3 6 9 16 21 14 12 15 19 23 25 24 22 20 21 20 16 17 4 10 12 12 14 5 2 7 11 7 5 5 5 7 6 12 13 15 15
15 11 7 3 1 5 14 14 7 5 6 15 15 13 15 17 16 22 22 23 14 21 22 16 10 4 9 12 13 15 1 6 10 10 3 16 6 13 11 10 8 12 14 17 13
16 11 6 8 7 7 5 9 6 3 6 18 18 13 16 23 17 19 21 21 17 20 17 17 19 14 13 15 15 11 5 11 12 14 17 7 6 13 10 11 11 15 15 16 14
14 10 7 9 12 12 5 6 4 7 6 10 13 14 17 21 17 22 21 19 17 15 18 19 15 11 16 15 9 11 10 14 13 16 11 5 16 5 16 11 13 16 16 17 18
12 10 10 12 2 8 8 11 7 11 12 13 14 21 20 15 16 20 21 19 17 15 19 17 15 12 14 8 14 15 15 5 10 13 1 14 12 7 22 12 13 17 19 19 18
7 5 10 17 7 9 12 9 11 15 9 9 13 20 20 21 17 18 20 19 20 18 14 15 16 18 15 18 16 16 19 7 9 7 4 18 4 9 15 12 18 20 20 21 20
3 4 6 10 12 11 17 12 11 5 4 7 14 19 19 20 12 18 21 20 21 19 18 17 18 23 22 15 17 17 16 21 21 15 11 6 5 12 15 15 14 23 22 22 21
9 5 5 8 14 11 11 17 6 5 7 8 13 17 17 20 12 16 18 20 20 22 20 7 11 16 21 20 22 19 13 10 16 15 14 0 15 15 16 16 15 19 22 22 20
4 9 4 11 11 13 11 15 2 6 7 9 15 13 16 15 18 16 13 10 21 19 18 18 15 13 20 15 17 12 15 17 13 2 10 3 8 18 17 18 18 19 21 21 19
5 2 10 13 10 17 12 13 4 6 8 6 8 7 12 15 17 17 15 16 16 19 22 18 11 13 18 16 19 21 15 18 13 8 7 13 4 16 13 19 22 21 21 20 18
5 7 11 12 7 12 15 3 10 9 9 7 10 11 9 14 12 12 13 10 6 19 21 17 9 11 16 19 9 12 17 16 19 18 6 6 4 13 18 22 23 23 22 22 19
8 5 9 16 18 14 16 12 15 14 10 8 9 4 7 12 14 10 13 8 9 17 19 19 16 14 12 14 11 18 19 20 21 16 7 9 14 6 14 21 23 23 22 20 20
6 4 5 9 13 11 3 4 11 11 12 9 10 13 11 8 14 14 14 14 11 9 16 19 18 18 19 5 10 4 19 20 21 22 19 3 12 8 10 20 23 24 24 24 22
8 6 3 10 1 8 6 11 12 11 4 12 14 10 9 12 17 7 15 10 14 16 16 18 17 15 21 17 11 10 15 17 16 17 11 15 7 17 34 14 18 22 24 25 25
8 6 7 3 9 10 7 0 5 3 10 16 3 10 11 6 14 13 12 7 12 16 16 17 15 16 15 19 14 12 16 13 12 15 13 12 10 28 18 13 17 21 23 24 24
Wind_Direction
359 359 346 309 272 255 244 240 237 237 239 243 246 249 251 252 252 254 246 227 222 241 237 290 284 287 295 250 273 261 277 57 70 36 111 126 177 142 316 113 93 80 44 144 159
353 355 355 336 301 270 251 238 237 234 234 239 242 247 253 256 255 255 234 231 231 221 239 274 304 307 253 191 193 277 81 52 5 48 124 129 257 156 218 156 145 110 105 147 157
345 348 350 345 320 287 262 242 233 231 229 232 235 241 246 255 280 246 227 229 218 211 225 270 282 276 279 218 141 238 52 99 107 10 341 94 193 306 266 4 178 143 149 157 165
335 339 340 342 325 298 272 249 232 226 224 226 228 230 229 201 225 148 216 216 208 202 238 262 265 252 257 201 148 209 125 104 14 35 337 310 342 307 317 160 16 134 155 164 173
324 327 330 332 332 301 273 251 232 221 217 216 218 218 203 228 250 283 203 200 200 199 223 238 261 270 224 204 207 231 153 219 258 311 288 286 52 4 348 337 330 124 158 173 177
318 319 321 323 325 312 277 248 228 215 210 207 209 208 210 246 200 212 171 190 193 197 215 226 270 299 291 237 255 39 256 256 192 293 87 178 116 257 30 344 182 161 166 176 183
311 312 314 317 319 314 283 242 219 208 203 202 203 208 244 226 205 201 181 185 192 196 212 216 254 262 323 192 235 264 251 214 179 351 68 150 128 51 29 90 136 171 141 170 191
312 306 307 312 315 312 278 233 204 198 195 195 197 204 251 228 216 208 184 187 192 198 223 211 239 265 261 266 237 243 225 204 110 315 121 239 135 123 139 154 154 153 167 178 193
319 302 303 306 313 309 254 195 178 181 188 183 172 213 246 226 204 192 188 189 186 194 206 215 237 248 215 234 217 213 291 135 215 68 187 231 115 113 171 161 156 164 189 201 198
320 305 300 302 311 292 182 162 165 175 176 185 242 233 233 207 188 189 188 190 190 188 203 219 229 230 233 231 253 253 177 178 48 97 234 120 87 151 175 197 181 202 227 153 181
322 311 299 299 305 213 159 133 143 217 210 208 210 246 136 154 175 187 186 192 191 197 209 207 224 224 227 108 181 277 299 276 119 148 234 13 131 165 164 184 194 245 340 90 152
321 310 298 296 289 203 187 205 343 329 249 223 229 231 211 190 184 190 185 197 199 203 212 190 233 235 95 90 252 256 240 250 134 179 253 175 154 163 178 139 168 113 125 143 147
317 307 298 294 276 211 200 206 249 336 257 178 209 218 198 197 200 187 189 199 201 213 204 228 195 245 167 217 228 233 245 263 169 209 236 195 103 292 173 143 133 125 133 148 145
312 299 290 285 14 209 228 238 249 312 268 154 191 211 193 197 216 187 196 199 201 216 219 229 234 207 242 236 236 247 151 257 269 240 156 266 229 244 187 144 164 149 155 159 151
306 289 257 209 188 192 128 192 198 260 255 141 151 149 181 199 165 193 192 206 223 215 223 207 233 181 230 226 215 265 249 263 240 251 232 200 288 325 169 162 155 160 166 160 162
301 280 239 220 226 180 206 194 177 228 246 152 151 186 174 204 178 172 192 216 225 224 224 235 205 240 232 223 246 265 246 243 238 244 240 244 259 73 291 130 147 155 163 152 159
295 272 219 186 185 207 187 179 214 241 125 155 174 174 190 186 199 175 191 201 207 213 214 217 236 208 250 234 202 228 244 237 254 231 147 239 270 175 253 143 146 153 158 161 160
291 230 195 189 225 177 176 211 247 215 209 141 174 175 195 178 197 179 195 202 216 219 202 206 213 204 199 232 213 219 241 116 254 316 35 247 139 175 161 130 140 152 158 160 164
101 149 184 206 183 178 201 217 220 233 132 180 170 182 198 181 199 200 204 214 202 223 239 195 229 197 218 209 243 240 237 136 236 262 213 63 131 128 139 147 158 152 159 165 168
106 144 143 178 170 173 224 244 298 11 307 278 195 190 193 183 210 196 198 211 217 206 243 265 214 211 192 220 222 252 286 255 230 222 272 66 286 130 165 151 169 160 165 170 173
121 193 165 159 163 204 223 233 239 176 259 249 220 183 207 191 201 193 204 216 212 196 220 249 234 170 192 204 222 208 248 258 283 46 284 125 320 316 164 168 169 170 167 170 172
283 214 164 161 201 212 226 245 16 239 195 266 307 275 222 213 197 229 230 211 192 205 205 225 217 213 190 213 226 246 238 243 250 224 157 249 195 254 204 173 174 165 172 166 167
258 105 170 185 228 194 236 257 232 255 232 220 225 241 217 224 195 229 202 179 194 211 201 208 241 237 197 206 198 252 249 274 272 244 70 352 198 228 168 170 177 170 165 161 166
269 149 165 213 265 277 206 218 217 202 278 292 299 279 245 185 202 199 222 149 188 209 197 221 234 249 219 219 215 211 229 246 256 266 123 259 233 172 200 173 173 171 170 167 175
243 9 135 187 232 247 318 293 214 229 196 208 237 248 207 216 216 205 214 150 200 182 179 218 226 245 261 219 249 242 257 232 236 253 255 168 330 24 255 165 169 168 168 170 175
319 338 246 305 346 210 172 232 230 226 250 211 236 207 231 243 315 178 199 170 187 179 195 206 241 240 251 255 220 259 268 264 244 248 264 55 332 85 257 147 164 175 177 174 175
341 299 279 179 221 222 206 241 244 333 259 257 9 324 278 319 10 252 130 195 166 189 203 219 225 229 243 233 247 242 258 256 254 237 266 182 156 182 191 153 176 178 180 177 178